FENGYUN 4B

Last updated on Tue Sep 22 2026 00:03:15 GMT+0000 (Coordinated Universal Time)

1 48808U 21047A 26264.58111109 -.00000334 00000+0 00000+0 0 9997 2 48808 0.3895 80.9685 0008210 281.3723 311.9800 1.00276467 19531
UTC large
Height (km)
Speed (km/s)
/
Latitude / Longitude
Inclination (degrees)
Orbital Period (minutes)
Azimuth
Elevation
Range (km)
Doppler Factor

Next 0 passes for location: London (51.5072 / 0.1276)

No passes found over London.
FENGYUN 4B